SCP
0 0 0 0 0 0 0 0 0 0 0 0 0 0 0 0 0 0 0 0 0 0 0 0 0 0 0 0 0 0 0 0 0 0 0 0 0 0 0 -0 -0 -0 -0
0 0 0 0 0 0 0 0 0 0 0 0 0 0 0 0 0 0 0 0 0 0 0 0 0 0 0 0 0 0 0 0 0 0 0 0 0 0 0 -0 -0 -0 -0
0 0 0 0 0 0 0 0 0 0 0 0 0 0 0 0 0 0 0 0 0 0 0 0 0 0 0 0 0 0 0 0 0 0 0 0 0 0 0 0 -0 -0 -0
0 0 0 0 0 0 0 0 0 0 0 0 0 0 0 0 0 0 0 0 0 0 0 0 0 0 0 0 0 0 0 0 0 0 0 0 0 0 0 0 0 -0 -0
0 0 0 0 0 0 0 0 0 0 0 0 0 0 0 0 0 0 0 0 0 0 0 0 0 0 0 0 0 0 0 0 0 0 0 0 0 0 0 0 0 0 0
0 0 0 0 0 0 0 0 0 0 0 0 0 0 0 0 0 0 0 0 0 0 0 0 0 0 0 0 0 0 0 0 0 0 0 0 0 0 0 0 0 0 0
0 0 0 0 0 0 0 0 0 0 0 0 0 0 0 0 0 0 0 0 0 0 0 0 0 0 0 0 0 0 0 0 0 0 0 0 0 0 0 0 0 0 0
0 0 0 0 0 0 0 0 0 0 0 0 0 0 0 0 0 0 0 0 0 0 0 0 0 0 0 0 0 0 0 0 0 0 0 0 0 0 0 0 0 0 0
0 0 0 0 0 0 0 0 0 0 0 0 0 0 0 0 0 0 0 0 0 0 0 0 0 0 0 0 0 0 0 0 0 0 0 0 0 0 0 0 0 0 0
0 0 0 0 0 0 0 0 0 0 0 0 0 0 0 0 0 0 0 0 0 0 0 0 0 0 0 0 0 0 0 0 0 0 0 0 0 0 0 0 0 0 0
0 0 0 0 0 0 0 0 0 0 0 0 0 0 0 0 0 0 0 0 0 0 0 0 0 0 0 0 0 0 0 0 0 0 0 0 0 0 0 0 0 0 0
0 0 0 0 0 0 0 0 0 0 0 0 0 0 0 0 0 0 0 0 0 0 0 0 0 0 0 0 0 0 0 0 0 0 0 0 0 0 0 0 0 0 0
0 0 0 0 0 0 0 0 0 0 0 0 0 0 0 0 0 0 0 0 0 0 0 0 0 0 0 0 0 0 0 0 0 0 0 0 0 0 0 0 0 0 0
0 0 0 0 0 0 0 0 0 0 0 0 0 0 0 0 0 0 0 0 0 0 0 0 0 0 0 0 0 0 0 0 0 0 0 0 0 0 0 0 0 0 0
0 0 0 0 0 0 0 0 0 0 0 0 0 0 0 0 0 0 0 0 0 0 0 0 0 0 0 0 0 0 0 0 0 0 0 0 0 0 0 0 0 0 0
0 0 0 0 0 0 0 0 0 0 0 0 0 0 0 0 0 0 0 0 0 0 0 0 0 0 0 0 0 0 0 0 0 0 0 0 0 0 0 0 0 0 0
0 0 0 0 0 0 0 0 0 0 0 0 0 0 0 0 0 0 0 0 0 0 0 0 0 0 0 0 0 0 0 0 0 0 0 0 0 0 0 0 0 0 0
0 0 0 1 1 1 0 0 0 0 0 0 0 0 0 0 0 0 0 0 0 0 0 0 0 0 0 0 0 0 0 0 0 0 0 0 0 0 0 0 0 0 0
0 0 0 1 1 1 1 1 0 0 0 0 0 0 0 0 0 0 0 0 0 0 0 0 0 0 0 0 0 0 0 0 0 0 0 0 0 0 0 0 0 0 0
0 0 0 1 1 1 1 1 1 0 0 0 0 0 0 0 0 0 0 0 0 0 0 0 0 0 0 0 0 0 0 0 0 0 0 0 0 0 0 0 0 0 0
0 0 1 1 1 1 1 1 1 1 1 1 0 0 0 0 0 0 0 0 0 0 0 0 0 0 0 0 0 0 0 0 0 0 0 0 0 0 0 0 0 0 0
0 1 1 1 1 1 1 1 1 1 1 1 1 1 0 0 0 0 0 0 0 0 0 0 0 0 0 0 0 0 0 0 0 0 0 0 0 0 0 0 0 0 0
1 1 1 1 1 1 1 1 1 1 1 1 1 1 1 1 0 0 0 0 0 0 0 0 0 0 0 0 0 0 0 0 0 0 0 0 0 0 0 0 0 0 0
1 1 1 1 1 1 1 1 1 1 1 1 1 1 1 1 1 1 0 0 0 0 0 0 0 0 0 0 0 0 0 0 0 0 0 0 0 0 0 0 0 0 0
0 1 1 1 1 1 1 1 1 1 1 1 1 1 1 1 1 1 1 0 0 0 0 0 0 0 0 0 0 0 0 0 0 0 0 0 0 0 0 0 0 0 0
0 0 0 1 1 1 1 1 1 1 1 1 1 1 1 1 1 1 1 1 1 1 1 1 0 0 0 0 0 0 0 0 0 0 0 0 0 0 0 0 0 0 0
Wind_Speed
9 12 13 12 12 11 11 11 11 11 11 11 11 10 10 9 10 10 10 10 9 9 9 9 8 8 7 6 5 5 7 8 8 8 8 8 7 6 5 5 3 3 5
11 13 14 12 12 11 11 11 11 11 12 12 11 10 10 10 10 11 10 10 9 9 9 8 8 8 7 6 5 6 7 7 7 7 7 7 7 6 6 5 0 4 4
12 12 13 11 11 11 11 11 11 12 11 11 11 11 10 10 11 11 11 10 9 9 8 8 8 8 8 8 8 7 7 6 6 5 3 5 7 6 6 5 4 5 5
11 11 12 12 11 11 10 11 11 11 11 11 11 11 10 10 11 11 11 10 10 9 8 8 8 8 8 9 10 10 9 7 5 1 3 3 4 8 5 5 5 5 5
11 10 11 11 11 10 10 10 10 11 10 10 11 11 10 10 11 11 11 11 10 9 8 7 7 7 8 9 10 10 10 8 4 0 3 2 3 6 4 4 5 5 5
10 10 11 11 11 10 10 10 10 10 10 11 11 11 10 10 11 11 11 11 10 9 7 6 6 6 8 9 10 10 9 7 4 6 4 3 4 5 4 4 4 4 4
10 9 10 10 10 10 10 10 10 11 11 12 12 11 10 11 11 11 11 10 9 8 7 6 6 7 8 9 9 9 8 5 6 6 6 6 6 6 5 5 3 4 4
9 8 10 11 9 9 10 10 11 12 13 13 12 11 10 11 11 10 11 10 9 8 8 7 6 7 8 9 8 8 7 6 5 5 6 8 8 7 7 7 6 5 5
8 8 8 11 11 10 9 11 12 12 13 13 12 11 10 10 10 11 11 10 9 9 8 8 8 9 9 8 8 8 6 5 3 4 5 7 9 9 8 8 7 7 6
8 8 7 8 8 9 10 11 12 13 12 12 12 11 10 11 11 11 11 10 10 9 9 9 9 10 9 8 8 6 1 5 4 3 4 7 7 8 8 7 7 7 7
7 7 8 8 8 8 9 11 12 12 12 12 11 11 11 9 10 9 11 11 10 10 9 9 9 9 8 8 6 1 4 2 4 4 6 7 6 7 7 7 6 6 6
10 9 8 8 8 9 7 8 8 8 10 9 9 10 8 7 6 8 11 10 10 10 9 8 8 7 3 5 6 5 2 4 3 5 7 6 5 6 6 6 5 5 5
10 9 9 8 8 8 7 7 6 5 6 7 9 9 6 7 6 7 7 9 9 9 8 8 7 3 4 5 3 4 5 4 3 5 8 9 6 6 6 6 6 5 5
10 10 10 9 9 9 7 6 6 6 6 6 7 9 7 5 6 6 5 6 6 4 4 4 3 5 5 5 6 6 6 4 5 5 8 10 8 8 7 7 7 6 6
11 11 10 10 10 9 7 6 6 6 6 6 6 7 8 6 6 6 6 5 5 5 5 4 4 5 5 6 6 7 7 7 7 7 7 14 11 10 9 9 9 9 9
12 12 11 12 11 10 8 8 7 6 6 6 6 7 8 6 6 6 7 7 6 5 4 5 6 5 5 5 6 7 7 7 8 8 7 11 17 16 13 12 11 10 10
11 12 12 12 12 12 11 9 6 6 7 7 6 8 9 8 8 7 7 8 7 6 6 4 7 5 5 5 6 6 6 7 7 8 8 6 9 16 17 16 15 13 12
10 11 12 11 13 13 11 9 7 7 7 7 7 7 9 10 10 8 7 7 8 6 5 5 6 6 5 5 5 5 5 5 8 7 7 7 6 6 12 16 17 16 16
10 11 12 13 13 13 11 8 7 7 7 7 7 7 9 11 11 9 7 7 9 7 6 6 7 6 6 5 5 4 4 5 5 6 7 8 7 6 6 9 13 16 16
9 10 11 11 12 11 9 8 6 6 7 7 7 8 10 9 11 9 7 9 9 7 7 7 7 6 6 6 5 4 3 4 4 5 6 6 7 7 7 6 5 8 13
5 6 7 8 9 9 8 8 7 7 7 7 7 9 10 10 10 9 7 9 8 8 9 10 8 8 7 7 6 5 4 3 4 4 4 5 7 6 6 6 6 5 5
3 2 4 6 8 9 8 7 6 6 6 6 6 8 10 11 11 10 11 9 9 7 9 10 9 8 7 7 7 5 5 4 3 3 3 2 4 5 5 6 6 6 5
4 4 3 4 6 8 8 6 4 4 4 5 7 7 9 11 11 10 11 10 9 9 8 10 11 11 9 10 8 6 4 4 5 5 5 4 3 2 3 4 5 5 5
5 4 5 5 6 7 8 8 8 6 6 7 6 6 9 11 11 11 11 10 9 8 8 9 10 10 10 9 8 6 4 3 4 5 5 5 5 4 3 2 2 4 4
6 5 5 6 6 6 7 6 6 6 4 4 4 6 7 8 10 11 12 11 10 8 8 8 9 10 9 9 8 7 6 3 6 4 5 6 6 6 4 3 2 2 3
6 6 5 6 6 6 6 6 6 5 5 5 6 6 5 5 6 9 10 10 10 8 8 7 8 10 9 10 9 8 7 6 6 4 4 6 6 6 6 4 3 3 1
Wind_Direction
153 155 152 159 152 150 151 152 151 147 144 138 134 132 131 133 133 129 123 116 104 92 82 73 67 66 68 76 90 99 102 102 99 101 108 117 125 129 136 139 167 151 118
148 154 153 160 154 151 152 156 157 155 150 143 139 136 133 133 131 127 120 111 102 92 82 72 68 66 67 74 88 103 103 99 93 93 108 125 127 127 128 131 180 82 118
148 153 157 163 158 154 154 159 162 161 157 151 147 141 137 136 132 126 119 112 103 96 88 80 73 69 68 71 77 85 89 88 83 93 170 141 129 128 130 137 128 111 110
152 157 157 159 162 159 158 163 165 163 161 155 148 140 139 137 132 126 120 112 106 100 93 86 81 79 77 75 76 78 80 81 79 210 196 121 131 118 126 131 125 115 108
151 158 148 162 164 163 164 166 164 162 158 152 145 140 140 136 130 126 121 112 106 101 96 90 85 84 84 81 78 77 78 79 84 189 77 91 90 109 123 129 119 109 109
151 158 149 168 166 167 168 167 161 157 153 148 144 143 141 135 129 125 119 112 107 104 103 99 91 91 91 86 81 75 69 62 78 62 64 77 90 100 111 115 112 112 107
153 156 151 165 168 171 171 165 159 156 152 148 146 145 140 134 131 125 117 111 109 111 110 101 94 100 97 88 80 72 64 41 63 66 58 59 70 80 88 98 106 109 103
152 158 150 157 170 174 171 163 157 155 152 148 148 144 138 133 131 124 114 112 114 115 109 98 98 104 98 85 75 67 47 350 78 67 66 67 60 68 78 84 91 97 101
151 161 162 159 167 173 171 163 158 155 152 151 150 146 140 135 131 122 115 117 121 117 107 101 103 104 93 80 74 72 62 358 41 61 71 68 61 65 72 78 81 85 93
159 163 166 156 164 164 165 163 160 157 155 153 150 146 138 134 134 129 129 124 125 115 104 104 104 99 87 76 70 69 54 252 65 85 70 76 67 67 70 77 81 86 91
168 170 172 164 163 160 165 158 163 160 157 157 153 149 158 159 148 155 119 130 125 112 104 108 109 103 105 98 78 56 259 65 72 58 59 69 78 78 75 76 79 84 91
178 178 176 175 167 170 164 158 170 165 165 174 163 161 174 153 148 130 124 136 126 116 114 111 119 149 206 107 127 216 98 86 75 70 61 46 79 88 84 79 79 84 90
178 176 183 180 177 174 169 165 168 166 172 180 167 163 171 152 152 149 153 151 147 158 138 140 170 116 72 64 61 79 62 64 59 62 56 39 55 77 86 83 79 83 93
183 182 184 186 178 186 177 171 177 172 174 177 176 174 171 169 172 163 168 157 160 160 142 147 122 100 72 79 81 84 81 66 64 62 57 47 55 66 72 74 74 71 73
191 191 191 191 188 187 181 178 188 184 182 178 180 186 181 176 183 171 171 166 173 162 162 152 149 110 91 74 64 69 77 72 72 74 66 58 59 65 68 70 69 68 67
201 197 194 195 193 191 188 189 191 185 182 189 187 199 193 185 187 178 179 171 175 176 162 163 142 129 107 88 78 72 72 78 75 84 86 71 62 59 60 65 67 69 69
208 206 201 198 197 197 198 196 192 193 189 188 188 205 202 192 189 185 184 178 176 175 168 162 141 135 116 116 106 89 76 69 80 81 80 81 76 64 53 54 57 61 64
219 217 208 200 202 200 198 196 197 202 198 190 188 200 207 198 196 186 187 187 177 177 172 158 165 154 143 143 124 105 95 82 68 69 74 76 70 72 64 50 49 52 55
230 228 221 211 208 203 197 192 200 206 204 200 192 191 207 208 197 188 195 192 182 180 181 175 176 169 158 150 131 120 98 87 89 78 75 72 77 72 77 75 63 50 46
236 233 232 224 216 203 190 193 195 212 212 205 200 196 201 209 206 193 196 203 190 183 186 186 179 180 164 169 154 132 114 111 98 80 74 74 69 67 64 61 74 72 53
224 231 226 223 211 197 184 188 194 201 210 208 206 202 197 204 208 201 206 210 199 195 194 193 181 181 179 177 161 154 144 144 108 115 93 91 87 77 77 66 55 45 71
162 185 201 199 194 189 189 191 200 199 209 207 204 205 201 201 203 205 206 208 208 207 201 196 185 184 184 191 187 172 165 165 180 155 143 111 108 99 77 73 72 62 47
140 136 151 167 174 184 181 178 176 178 189 194 202 204 203 202 202 206 212 211 216 211 204 198 192 188 188 203 207 199 192 175 160 176 175 179 141 125 110 76 71 71 64
127 128 140 153 165 174 179 189 195 204 211 213 210 202 202 204 204 206 211 211 216 216 209 202 198 198 194 199 212 234 248 157 177 160 189 193 184 183 159 139 97 74 66
129 132 136 144 155 167 187 191 207 217 223 210 208 211 207 202 207 206 209 207 207 207 205 201 200 204 202 203 204 206 213 200 240 189 167 180 191 199 186 177 158 104 79
141 141 144 148 147 161 180 192 205 200 204 202 208 211 206 197 203 207 204 202 198 191 188 190 199 207 214 213 212 210 207 208 225 215 190 177 183 178 185 185 196 165 135